Flag Weather past 2 weeks in Saint John, New Brunswick, Canada

Now
43 °F

Mostly cloudy.


Feels Like: 38 °F
Forecast: 38 / 46 °F
Wind: 8 mph from Northeast

Location: Saint John

Current Time: Oct 31, 2014 at 10:51:36 PM

Latest Report: Oct 31, 2014 at 10:00 PM


Visibility: 15 mi

Pressure: 30.09 "Hg

Humidity: 81%

Dew point: 37 °F

Location of Saint JohnLocation

Historic Weather in Saint John — Graph

°F

Saint John temperature yesterday

Maximum temperature yesterday: 54 °F (at 12:00 AM)
Minimum temperature yesterday: 36 °F (at 10:00 PM)
Average temperature yesterday: 48 °F

Past Weeks' High & Low Weather Summary

 TemperatureHumidityPressure
High64 °F (Oct 16, 9:00 PM)100% (Oct 16, 9:00 PM)30.29 "Hg (Oct 16, 9:00 PM)
Low28 °F (Oct 21, 5:00 AM)41% (Oct 21, 1:00 PM)29.31 "Hg (Oct 26, 2:00 PM)
Average48 °F86%29.80 "Hg
* Reported Oct 16 9:00 PM — Oct 31 9:00 PM, Saint John, Weather by CustomWeather, © 2014

Note: Actual official high and low records may vary slightly from our data, if they occured in-between our weather recording intervals... More about our weather records

Advertising

Saint John weather history for previous 24 hours

 ConditionsComfort  
Time TempWeatherWind HumidityBarometerVisibility
9:00 PM
Oct 31
43 °FSprinkles. Overcast.6 mph87%30.10 "Hg15 mi
8:00 PM45 °FMostly cloudy.8 mph76%30.08 "Hg15 mi
7:00 PM45 °FOvercast.3 mph71%30.07 "Hg15 mi
6:00 PM46 °FOvercast.5 mph66%30.07 "Hg15 mi
5:00 PM48 °FPartly sunny.7 mph62%30.05 "Hg15 mi
4:00 PM50 °FPartly sunny.6 mph58%30.05 "Hg15 mi
3:00 PM50 °FPartly sunny.8 mph58%30.04 "Hg15 mi
2:00 PM48 °FOvercast.7 mph58%30.04 "Hg15 mi
1:00 PM50 °FPartly sunny.6 mph54%30.05 "Hg15 mi
12:00 PM48 °FPartly sunny.5 mph58%30.06 "Hg15 mi
11:00 AM45 °FPartly sunny.9 mph61%30.06 "Hg15 mi
10:00 AM43 °FPartly sunny.7 mph66%30.06 "Hg15 mi
9:00 AM41 °FPartly sunny.3 mph70%30.04 "Hg15 mi
8:00 AM39 °FPassing clouds.No wind81%30.02 "Hg15 mi
7:00 AM39 °FMostly cloudy.5 mph87%30.01 "Hg15 mi
6:00 AM37 °FMostly cloudy.2 mph93%30.00 "Hg15 mi
5:00 AM41 °FOvercast.5 mph76%29.98 "Hg15 mi
4:00 AM41 °FMostly cloudy.3 mph76%29.98 "Hg15 mi
3:00 AM43 °FOvercast.6 mph66%29.97 "Hg15 mi
2:00 AM43 °FOvercast.9 mph71%29.95 "Hg15 mi
1:00 AM41 °FOvercast.6 mph100%29.95 "Hg15 mi
12:00 AM39 °FOvercast.3 mph100%29.93 "Hg15 mi
11:00 PM
Oct 30
37 °FPassing clouds.No wind100%29.92 "Hg15 mi
10:00 PM36 °FPassing clouds.No wind93%29.91 "Hg15 mi
Weather by CustomWeather, © 2014

See weather overviewHow to use our weather pages